Weather History for Weatherford, OK

Change the Weather History Date:

Friday, March 28, 2014

  Actual Average (KJWG) Record (KJWG)
Temperature  
Mean Temperature 49 °F -  
Max Temperature 59 °F 66 °F 86 °F (1963)
Min Temperature 37 °F 45 °F 25 °F (1983)
Degree Days  
Heating Degree Days 16    
Moisture  
Dew Point 34 °F    
Average Humidity 62    
Maximum Humidity 81    
Minimum Humidity 39    
Precipitation  
Precipitation 0.00 in - - ()
Sea Level Pressure  
Sea Level Pressure 29.97 in    
Wind  
Wind Speed 13 mph (NNE)    
Max Wind Speed 24 mph    
Max Gust Speed 30 mph    
Visibility 10 miles    
Events      
Averages and records for this station are not official NWS values.
T = Trace of Precipitation, MM = Missing Value Source: NWS Daily Summary

Daily Weather History Graph

Daily Weather History Graph

Search for Another Location

Airport:

Trip Planner

Search our weather history database for the weather conditions in past years. The results will help you decide how hot, cold, wet, or windy it might be!

Date:

Astronomy

Mar. 28, 2014 Rise Set
Actual Time 7:26 AM CDT 7:53 PM CDT
Civil Twilight 7:01 AM CDT 8:18 PM CDT
Nautical Twilight 6:31 AM CDT 8:48 PM CDT
Astronomical Twilight 6:00 AM CDT 9:19 PM CDT
Moon 5:54 AM CDT (3/28) 5:54 PM CDT (3/28)
Length of Visible Light 13h 17m
Length of Day
12h 26m
Waning Crescent, 6% of the Moon is Illuminated
Mar 28
Waning Crescent
Mar 30
New
Apr 7
First Quarter
Apr 15
Full
Apr 22
Last Quarter

Hourly Weather History & Observations

Time (CDT) Temp. Windchill Dew Point Humidity Pressure Visibility Wind Dir Wind Speed Gust Speed Precip Events Conditions
12:15 AM 51.8 °F - 39.2 °F 62% 29.82 in 10.0 mi NE 9.2 mph - N/A   Clear
12:35 AM 51.8 °F - 39.2 °F 62% 29.82 in 10.0 mi NE 9.2 mph - N/A   Clear
12:55 AM 51.8 °F - 37.4 °F 58% 29.83 in 10.0 mi NE 9.2 mph - N/A   Clear
1:15 AM 51.8 °F - 37.4 °F 58% 29.83 in 10.0 mi NE 10.4 mph - N/A   Clear
1:35 AM 50.0 °F - 37.4 °F 62% 29.84 in 10.0 mi NE 10.4 mph - N/A   Clear
1:55 AM 50.0 °F - 37.4 °F 62% 29.83 in 10.0 mi ENE 12.7 mph 18.4 mph N/A   Clear
2:15 AM 50.0 °F - 37.4 °F 62% 29.83 in 10.0 mi ENE 11.5 mph - N/A   Clear
2:35 AM 46.4 °F 40.7 °F 37.4 °F 71% 29.84 in 10.0 mi NE 12.7 mph - N/A   Clear
2:55 AM 46.4 °F 40.7 °F 37.4 °F 71% 29.85 in 10.0 mi NE 12.7 mph 20.7 mph N/A   Clear
3:15 AM 46.4 °F 40.7 °F 37.4 °F 71% 29.84 in 10.0 mi NE 12.7 mph - N/A   Clear
3:35 AM 46.4 °F 40.4 °F 37.4 °F 71% 29.84 in 10.0 mi NE 13.8 mph - N/A   Clear
3:55 AM 44.6 °F 38.4 °F 35.6 °F 71% 29.84 in 10.0 mi NE 12.7 mph - N/A   Clear
4:15 AM 44.6 °F 38.4 °F 35.6 °F 71% 29.84 in 10.0 mi NE 12.7 mph - N/A   Clear
4:35 AM 44.6 °F 38.8 °F 35.6 °F 71% 29.83 in 10.0 mi NE 11.5 mph - N/A   Clear
4:55 AM 44.6 °F 38.4 °F 35.6 °F 71% 29.84 in 10.0 mi NE 12.7 mph - N/A   Clear
5:15 AM 42.8 °F 36.6 °F 35.6 °F 76% 29.85 in 10.0 mi NNE 11.5 mph - N/A   Clear
5:35 AM 42.8 °F 36.6 °F 35.6 °F 76% 29.86 in 10.0 mi NNE 11.5 mph - N/A   Clear
5:55 AM 42.8 °F 36.6 °F 35.6 °F 76% 29.88 in 10.0 mi NE 11.5 mph - N/A   Clear
6:15 AM 42.8 °F 38.0 °F 35.6 °F 76% 29.91 in 10.0 mi NE 8.1 mph - N/A   Clear
6:35 AM 41.0 °F 34.7 °F 35.6 °F 81% 29.90 in 10.0 mi NNE 10.4 mph - N/A   Clear
6:55 AM 41.0 °F 33.5 °F 35.6 °F 81% 29.91 in 10.0 mi NNE 13.8 mph - N/A   Clear
7:15 AM 41.0 °F 33.5 °F 33.8 °F 76% 29.92 in 10.0 mi North 13.8 mph 20.7 mph N/A   Clear
7:35 AM 41.0 °F 33.5 °F 33.8 °F 76% 29.94 in 10.0 mi NNE 13.8 mph - N/A   Clear
7:55 AM 41.0 °F 33.1 °F 33.8 °F 76% 29.95 in 10.0 mi NNE 15.0 mph 21.9 mph N/A   Clear
8:15 AM 41.0 °F 32.8 °F 33.8 °F 76% 29.95 in 10.0 mi NNE 16.1 mph - N/A   Clear
8:35 AM 41.0 °F 32.8 °F 33.8 °F 76% 29.94 in 10.0 mi NNE 16.1 mph - N/A   Clear
8:55 AM 41.0 °F 32.8 °F 33.8 °F 76% 29.94 in 10.0 mi NNE 16.1 mph - N/A   Clear
9:15 AM 41.0 °F 33.1 °F 33.8 °F 76% 29.95 in 10.0 mi NE 15.0 mph 21.9 mph N/A   Clear
9:35 AM 41.0 °F 33.9 °F 33.8 °F 76% 29.96 in 10.0 mi NNE 12.7 mph 18.4 mph N/A   Clear
9:55 AM 41.0 °F 33.1 °F 33.8 °F 76% 29.97 in 10.0 mi NNE 15.0 mph - N/A   Mostly Cloudy
10:15 AM 42.8 °F 34.8 °F 33.8 °F 70% 29.95 in 10.0 mi NE 17.3 mph 21.9 mph N/A   Scattered Clouds
10:35 AM 44.6 °F 37.4 °F 33.8 °F 66% 29.96 in 10.0 mi NNE 16.1 mph - N/A   Clear
10:55 AM 44.6 °F 37.4 °F 33.8 °F 66% 29.96 in 10.0 mi NNE 16.1 mph 23.0 mph N/A   Clear
11:15 AM 44.6 °F 37.4 °F 33.8 °F 66% 29.95 in 10.0 mi NE 16.1 mph 20.7 mph N/A   Clear
11:35 AM 48.2 °F - 35.6 °F 62% 29.97 in 10.0 mi NNE 16.1 mph - N/A   Clear
11:55 AM 50.0 °F - 35.6 °F 58% 29.97 in 10.0 mi NNE 19.6 mph - N/A   Clear
12:15 PM 50.0 °F - 35.6 °F 58% 29.98 in 10.0 mi NNE 20.7 mph 26.5 mph N/A   Clear
12:35 PM 48.2 °F - 33.8 °F 58% 30.00 in 10.0 mi NNE 20.7 mph 25.3 mph N/A   Mostly Cloudy
12:55 PM 46.4 °F 38.7 °F 33.8 °F 62% 30.01 in 10.0 mi North 20.7 mph 28.8 mph N/A   Mostly Cloudy
1:15 PM 44.6 °F 36.4 °F 33.8 °F 66% 30.02 in 10.0 mi North 20.7 mph 27.6 mph N/A   Scattered Clouds
1:35 PM 46.4 °F 38.7 °F 33.8 °F 62% 30.01 in 10.0 mi North 20.7 mph 25.3 mph N/A   Clear
1:55 PM 50.0 °F - 35.6 °F 58% 30.00 in 10.0 mi North 18.4 mph 24.2 mph N/A   Clear
2:15 PM 51.8 °F - 35.6 °F 54% 30.00 in 10.0 mi North 20.7 mph 26.5 mph N/A   Clear
2:35 PM 51.8 °F - 33.8 °F 50% 30.00 in 10.0 mi NNE 24.2 mph 29.9 mph N/A   Clear
2:55 PM 51.8 °F - 35.6 °F 54% 29.99 in 10.0 mi North 24.2 mph 28.8 mph N/A   Clear
3:15 PM 53.6 °F - 35.6 °F 51% 29.99 in 10.0 mi NNE 24.2 mph - N/A   Clear
3:35 PM 55.4 °F - 35.6 °F 47% 29.98 in 10.0 mi North 21.9 mph 26.5 mph N/A   Clear
3:55 PM 57.2 °F - 35.6 °F 44% 29.97 in 10.0 mi North 18.4 mph 24.2 mph N/A   Clear
4:15 PM 57.2 °F - 33.8 °F 41% 29.97 in 10.0 mi North 18.4 mph 26.5 mph N/A   Clear
4:35 PM 57.2 °F - 33.8 °F 41% 29.97 in 10.0 mi North 20.7 mph - N/A   Clear
4:55 PM 59.0 °F - 33.8 °F 39% 29.97 in 10.0 mi North 15.0 mph - N/A   Clear
5:15 PM 57.2 °F - 33.8 °F 41% 29.98 in 10.0 mi NNE 16.1 mph 25.3 mph N/A   Clear
5:35 PM 57.2 °F - 33.8 °F 41% 29.99 in 10.0 mi NNE 15.0 mph 21.9 mph N/A   Clear
5:55 PM 57.2 °F - 33.8 °F 41% 29.99 in 10.0 mi NNE 15.0 mph - N/A   Clear
6:15 PM 55.4 °F - 32.0 °F 41% 30.01 in 10.0 mi NNE 13.8 mph 21.9 mph N/A   Clear
6:35 PM 55.4 °F - 32.0 °F 41% 30.02 in 10.0 mi NNE 17.3 mph - N/A   Clear
6:55 PM 55.4 °F - 32.0 °F 41% 30.03 in 10.0 mi NNE 16.1 mph - N/A   Clear
7:15 PM 53.6 °F - 32.0 °F 44% 30.04 in 10.0 mi NE 12.7 mph - N/A   Clear
7:35 PM 53.6 °F - 32.0 °F 44% 30.06 in 10.0 mi NNE 9.2 mph - N/A   Clear
7:55 PM 51.8 °F - 32.0 °F 47% 30.07 in 10.0 mi NE 8.1 mph - N/A   Clear
8:15 PM 50.0 °F - 32.0 °F 50% 30.08 in 10.0 mi NNE 6.9 mph - N/A   Clear
8:35 PM 50.0 °F - 32.0 °F 50% 30.08 in 10.0 mi NNE 5.8 mph - N/A   Clear
8:55 PM 46.4 °F 45.2 °F 32.0 °F 57% 30.09 in 10.0 mi NNE 3.5 mph - N/A   Clear
9:15 PM 46.4 °F 45.2 °F 32.0 °F 57% 30.10 in 10.0 mi NNE 3.5 mph - N/A   Clear
9:35 PM 44.6 °F 43.1 °F 32.0 °F 61% 30.11 in 10.0 mi NNE 3.5 mph - N/A   Clear
9:55 PM 42.8 °F 40.1 °F 32.0 °F 66% 30.12 in 10.0 mi NNE 4.6 mph - N/A   Clear
10:15 PM 42.8 °F 40.1 °F 32.0 °F 66% 30.12 in 10.0 mi NNE 4.6 mph - N/A   Clear
10:35 PM 42.8 °F 38.6 °F 32.0 °F 66% 30.14 in 10.0 mi North 6.9 mph - N/A   Clear
10:55 PM 41.0 °F 38.0 °F 32.0 °F 70% 30.14 in 10.0 mi North 4.6 mph - N/A   Clear
11:15 PM 41.0 °F 38.0 °F 32.0 °F 70% 30.15 in 10.0 mi NNW 4.6 mph - N/A   Clear
11:35 PM 39.2 °F 35.0 °F 32.0 °F 75% 30.14 in 10.0 mi North 5.8 mph - N/A   Clear
11:55 PM 37.4 °F 32.8 °F 32.0 °F 81% 30.14 in 10.0 mi North 5.8 mph - N/A   Clear